Theta_e
302 301 300 301 299 301 304 306 303 299 298 298 298 296 296 297 300 301 300 300 299 299 297 294 292 291 291 291 291 292 292 292 292 293 294 294 294 293 292 292 292 291 290 289
298 300 299 298 300 298 299 299 299 297 297 297 296 298 297 295 297 300 300 299 298 296 294 292 291 291 291 291 292 292 291 291 292 292 291 291 291 291 291 291 290 289 288 287
299 299 298 298 298 303 300 300 299 298 297 296 294 299 297 295 295 296 297 298 297 295 293 291 291 291 291 291 291 291 290 290 290 290 290 289 289 289 288 288 287 287 286 285
298 298 298 299 300 300 301 299 299 298 298 300 294 303 298 295 293 293 294 295 295 294 293 291 291 291 290 290 290 290 290 289 289 288 288 287 286 285 285 285 285 285 284 284
301 299 298 299 299 299 299 298 298 297 295 297 296 296 298 294 295 293 293 295 295 294 293 292 291 290 290 290 290 289 289 288 287 287 286 285 285 284 284 284 283 283 282 282
299 298 297 297 297 298 296 297 296 294 293 299 289 293 301 299 297 295 293 294 295 294 293 292 291 290 289 289 289 289 288 287 286 286 285 284 284 283 283 282 282 281 281 281
297 300 296 296 297 297 296 296 299 302 300 304 281 292 301 298 294 294 293 294 295 294 293 292 290 289 289 289 288 288 287 286 286 285 284 284 283 282 281 281 280 280 280 280
294 300 295 295 296 297 297 294 298 297 300 300 282 296 302 294 293 293 294 294 294 294 294 292 290 289 289 288 287 288 286 285 284 284 283 282 282 281 280 280 280 280 280 280
294 298 295 295 295 294 297 294 292 287 277 289 294 296 297 293 291 292 293 294 295 295 294 291 290 289 289 289 288 288 284 283 283 282 282 281 280 279 279 279 279 279 279 279
294 294 291 295 295 294 294 293 296 293 296 298 296 289 301 296 292 289 291 293 295 295 293 292 290 290 288 288 287 284 283 283 282 281 280 279 279 279 278 278 278 278 278 278
291 290 296 295 291 292 292 292 291 292 294 296 295 299 294 292 287 286 292 296 296 295 292 291 289 288 287 286 284 283 283 282 281 280 279 279 278 278 277 277 277 277 277 277
296 294 292 295 294 293 295 293 294 296 293 290 292 298 291 284 286 289 295 295 294 294 291 289 288 287 285 283 283 282 282 280 279 279 278 277 277 276 276 276 276 276 276 276
295 290 291 297 295 292 293 294 292 289 292 291 294 299 285 285 287 292 292 293 292 290 289 289 287 285 283 282 282 281 280 279 278 277 277 276 276 275 275 275 275 274 275 275
296 294 294 297 297 289 292 294 293 292 289 295 297 299 299 298 289 293 293 291 291 290 288 286 284 283 282 281 280 279 278 278 277 276 276 275 275 274 274 274 274 273 273 274
294 291 291 290 289 286 292 294 291 293 296 294 298 295 298 298 293 292 291 290 289 287 285 283 282 282 281 279 279 278 277 276 276 276 275 275 275 274 274 273 272 272 272 273
292 290 284 289 290 290 291 292 292 292 293 292 294 294 295 295 290 289 290 288 286 284 282 282 281 280 279 278 278 277 276 276 275 275 275 274 274 273 272 271 270 271 271 270
289 285 285 291 284 286 295 290 291 289 287 289 292 295 282 285 287 289 287 285 283 282 281 281 280 279 278 277 276 276 276 275 275 274 274 273 272 271 270 270 270 270 269 269
283 283 280 289 285 293 302 291 291 291 291 287 289 292 288 288 289 286 284 283 282 281 280 280 279 279 277 276 276 275 275 275 274 273 272 271 270 269 269 269 268 267 267 267
290 287 289 287 279 293 299 291 291 293 293 292 291 290 289 288 286 284 282 281 281 281 279 279 278 276 276 275 275 275 275 274 273 272 271 269 269 269 268 267 266 265 265 266
287 285 290 277 288 295 299 290 290 290 294 289 290 289 287 285 288 283 282 281 281 280 279 278 277 276 275 275 275 274 274 273 272 271 269 269 268 267 267 265 264 264 265 265
289 291 291 283 288 291 293 291 291 297 300 289 290 289 287 285 284 282 281 280 279 278 277 276 276 276 275 275 274 274 273 272 270 269 269 268 267 266 265 264 264 263 264 264
294 292 289 286 292 299 291 289 297 296 289 290 289 287 286 284 283 281 280 279 278 278 276 276 276 276 275 274 273 273 272 271 270 269 269 268 267 266 264 264 263 264 263 264
295 297 296 297 299 294 292 295 295 293 291 289 288 286 285 283 281 280 279 278 277 276 276 276 276 275 275 274 273 272 270 270 270 269 268 267 266 265 264 264 264 264 263 263
289 292 293 295 300 296 296 295 294 292 290 289 287 285 283 282 280 279 278 277 277 276 276 276 275 275 274 273 272 271 270 269 269 268 267 267 266 265 266 265 264 264 263 263
296 291 293 294 298 297 296 295 294 291 288 287 285 283 282 280 279 278 277 276 276 276 276 275 274 274 273 273 272 271 270 269 268 268 267 267 266 266 266 266 265 265 264 264
293 296 298 304 301 298 295 293 292 290 287 285 284 282 280 279 279 278 277 276 276 276 275 275 274 273 273 273 271 271 270 269 268 267 267 266 266 266 266 266 267 268 267 265
Wind_Speed
11 11 4 3 3 2 1 1 3 4 1 4 5 9 9 11 12 15 15 14 14 12 8 6 4 4 4 6 7 10 13 16 19 23 26 28 30 31 31 31 33 35 37 38
8 5 4 3 3 3 3 1 4 6 2 3 6 19 13 16 12 21 22 20 16 13 10 7 6 6 7 8 10 13 15 19 22 25 27 29 30 30 32 34 35 38 41 42
7 1 4 1 5 2 1 0 2 5 8 1 7 9 3 3 7 14 16 17 15 13 11 10 9 10 10 10 11 14 17 21 24 27 29 30 33 35 36 37 40 39 40 40
5 3 1 1 2 1 2 2 2 4 4 3 5 5 6 1 5 9 18 20 17 15 14 12 12 12 11 12 13 15 19 23 26 28 31 33 35 39 40 42 43 44 43 41
1 2 3 3 1 2 1 2 1 2 3 2 4 2 7 3 5 8 19 24 22 19 17 16 15 14 14 13 15 18 21 24 27 29 31 34 37 39 43 45 47 46 44 40
2 1 1 2 2 1 2 1 4 3 3 3 3 3 5 4 4 3 4 24 24 21 19 18 17 16 14 15 17 21 24 26 29 31 33 36 39 42 45 46 45 44 42 40
5 1 2 3 3 1 6 5 4 6 5 5 1 1 11 3 5 3 6 10 23 22 21 21 19 16 16 18 21 24 27 30 32 35 37 39 41 42 43 42 41 41 41 40
4 6 4 6 3 2 3 4 4 4 4 5 2 6 5 3 3 6 8 10 14 22 23 22 18 18 19 21 24 27 30 32 34 37 39 40 41 40 39 38 37 38 38 38
4 5 2 4 2 2 1 4 3 6 1 3 3 7 10 2 6 9 9 7 12 19 21 20 18 18 20 23 25 26 30 34 37 39 40 41 39 37 36 36 36 38 37 38
2 4 1 2 1 6 4 3 4 3 5 7 5 5 6 6 5 4 9 14 13 17 19 18 17 18 20 20 21 25 30 35 38 39 39 38 36 36 36 38 38 38 38 38
3 3 4 1 2 5 2 2 5 3 3 4 5 6 7 7 4 4 7 8 14 17 17 16 16 18 19 18 22 28 33 37 39 38 37 38 39 40 40 40 40 40 40 40
1 4 3 8 1 2 1 4 4 4 6 3 1 13 1 4 4 8 8 12 13 16 13 13 15 18 17 21 27 32 35 37 37 37 38 39 40 39 40 40 39 37 36 38
5 1 4 10 2 3 3 4 4 3 2 7 1 8 1 2 7 9 16 17 19 13 10 12 15 15 20 26 31 34 35 36 36 36 38 39 39 40 40 38 39 39 35 36
5 3 8 7 8 3 5 6 4 5 2 5 14 30 26 20 7 17 17 17 10 7 8 11 13 18 25 29 32 35 36 36 36 37 39 39 40 42 40 39 41 39 39 37
3 5 3 5 8 5 12 15 9 13 19 8 30 14 27 22 11 20 19 4 7 3 8 10 18 24 28 31 34 36 36 36 37 38 39 40 43 42 41 41 44 43 41 39
2 3 2 6 5 6 11 17 16 18 17 14 26 28 21 31 13 4 5 6 4 6 10 18 23 27 32 34 35 35 36 37 38 39 40 42 42 42 42 45 47 49 45 40
2 3 3 6 4 9 9 9 8 5 5 6 7 11 0 2 4 4 6 6 5 10 18 24 28 31 33 34 34 36 37 38 39 41 43 42 42 43 47 48 47 46 42 40
5 3 1 4 6 1 7 1 3 9 9 12 12 13 3 6 9 6 3 3 11 18 24 27 31 32 31 32 34 36 38 40 41 43 43 42 43 47 47 47 45 42 39 36
1 4 2 2 2 10 8 2 4 4 7 9 12 9 8 5 3 2 3 10 16 20 24 27 28 28 30 33 35 39 41 42 44 44 43 44 46 47 47 46 42 40 37 35
3 4 3 3 2 6 3 1 2 3 5 5 4 3 3 1 3 0 4 12 16 20 23 24 24 27 30 33 37 40 43 44 45 44 42 45 45 44 43 40 38 36 34 34
2 1 5 3 4 11 12 9 4 3 6 1 2 4 4 1 1 1 8 13 17 21 22 22 24 28 31 35 39 42 43 43 43 44 45 45 43 41 39 36 36 34 35 29
8 7 5 3 4 10 14 8 7 3 4 6 5 4 4 2 2 5 10 16 19 20 21 23 26 29 33 37 39 41 42 41 43 44 44 44 41 39 37 36 35 32 28 28
4 8 6 13 9 1 18 12 12 13 10 7 7 5 4 3 3 7 12 15 17 18 20 23 28 32 35 37 38 40 39 41 43 43 43 42 39 37 35 33 33 32 29 27
5 11 5 2 19 27 30 33 31 25 16 8 6 7 4 1 4 9 13 15 15 18 21 26 30 34 37 38 38 37 39 40 41 42 41 39 37 37 34 33 32 31 29 28
6 11 5 9 29 31 32 22 19 15 13 10 9 5 2 2 6 9 11 12 15 19 23 27 31 35 37 39 37 37 38 39 40 40 39 37 36 36 36 34 32 30 27 25
16 9 7 11 16 17 10 8 9 13 13 11 8 6 1 4 8 10 10 13 16 21 26 30 33 35 37 36 35 36 36 37 38 38 37 35 35 35 36 37 37 30 27 24
Wind_Direction
31 64 48 333 334 349 130 181 270 259 39 325 254 273 256 219 206 209 205 204 209 216 222 233 247 265 286 306 319 328 335 338 337 336 335 333 333 332 329 328 328 327 326 326
33 58 327 294 10 72 49 3 290 280 16 352 352 292 264 189 210 212 210 209 213 216 222 237 251 264 280 298 313 321 331 336 337 337 335 332 328 325 325 325 325 327 327 327
91 301 317 171 30 21 39 182 319 261 331 68 325 285 280 220 210 217 220 225 224 227 232 239 249 260 274 294 312 327 333 334 334 332 329 328 326 327 328 328 328 328 326 324
88 331 349 115 96 110 295 78 317 298 19 287 16 282 306 301 257 235 228 225 225 227 233 239 250 265 284 299 313 322 326 328 329 330 330 331 332 332 331 329 328 327 325 324
263 6 18 59 343 80 302 338 279 79 104 13 350 67 274 14 285 246 227 227 226 227 232 240 250 260 275 292 305 316 321 325 327 329 330 331 330 329 328 329 327 325 323 323
110 99 54 348 313 214 8 65 45 67 104 17 243 104 277 239 213 280 267 234 228 229 236 244 252 261 278 292 304 311 317 323 324 326 330 330 329 328 326 325 323 323 322 323
344 78 49 15 334 84 38 42 341 354 5 234 45 5 251 278 232 235 278 265 227 230 238 246 252 265 278 291 304 313 318 321 325 328 328 328 327 325 323 323 323 322 322 322
72 333 16 352 76 207 45 119 139 279 287 282 16 240 255 192 265 265 276 277 232 230 242 249 257 269 282 294 304 310 315 321 325 326 326 325 325 322 322 323 322 321 321 322
33 294 21 32 9 57 320 41 142 95 95 25 267 289 288 266 278 257 253 246 232 237 246 255 266 278 287 293 297 307 318 322 324 325 325 325 325 325 322 322 322 322 322 321
190 335 304 286 57 42 101 160 32 13 336 311 277 271 246 297 283 271 252 253 257 257 254 259 268 280 292 299 303 311 317 321 325 325 324 324 324 324 323 322 322 320 318 317
126 92 288 49 194 180 25 14 44 118 143 213 294 251 211 226 227 226 270 278 294 285 266 265 278 297 303 303 310 317 321 324 325 325 325 324 324 325 323 320 318 317 315 315
180 132 275 236 81 10 315 203 157 126 261 232 194 279 73 223 249 278 290 300 311 299 264 273 296 306 307 314 320 323 324 324 326 326 326 326 327 327 325 323 321 318 313 313
169 310 349 335 42 12 205 209 160 122 83 204 169 267 288 266 278 263 278 306 307 287 268 292 306 308 319 324 325 324 326 327 328 329 329 328 328 328 326 323 322 321 314 312
165 178 182 213 222 160 246 213 195 141 180 250 231 276 279 281 266 291 308 314 323 298 287 305 309 322 325 325 326 328 330 332 333 331 330 329 328 327 324 322 323 323 319 311
140 217 224 258 252 211 256 257 198 204 235 215 273 261 276 290 289 296 310 325 342 333 311 323 331 329 329 330 332 332 333 335 333 331 329 329 327 327 325 325 323 321 321 312
19 259 104 281 292 254 266 250 238 234 253 257 261 276 275 279 284 296 330 324 355 338 338 338 333 333 335 336 335 335 336 336 334 331 331 330 329 328 327 325 322 320 319 315
152 131 37 267 334 312 296 228 182 190 221 166 212 247 253 303 325 334 342 354 357 351 345 339 338 338 336 337 337 337 337 335 334 334 334 332 331 329 327 323 322 322 321 316
132 88 72 276 342 20 250 213 186 191 243 208 271 270 260 278 305 330 347 48 355 348 344 340 336 333 335 337 337 338 338 338 337 336 335 333 332 327 327 327 328 327 326 324
156 127 290 264 227 292 286 161 138 185 269 236 228 284 297 306 328 43 45 2 349 343 338 334 334 337 339 341 340 340 340 339 338 338 335 334 331 331 333 333 334 332 327 329
63 70 143 71 194 264 251 101 123 170 286 36 175 200 227 197 337 199 336 333 335 334 332 332 339 341 344 343 341 341 340 339 339 336 335 335 337 336 336 337 333 330 334 318
143 186 215 168 256 278 259 218 167 63 290 225 164 215 191 190 138 271 319 329 332 334 338 342 345 347 345 341 341 341 339 340 337 338 338 339 340 340 341 337 334 335 329 342
180 163 198 128 218 274 181 137 191 201 211 211 204 214 207 182 241 311 331 330 335 341 345 346 345 345 343 342 342 340 340 338 339 339 340 342 344 345 345 342 340 343 344 344
263 198 181 189 221 172 202 233 248 271 262 245 227 220 209 213 301 335 330 334 342 346 346 344 343 341 343 343 343 340 340 340 340 341 343 346 348 350 350 345 351 351 353 344
247 202 232 121 252 248 266 265 263 267 263 246 223 206 210 232 340 337 336 343 348 348 346 342 342 341 343 344 345 342 341 340 341 343 346 348 350 351 351 354 354 351 345 342
210 155 193 259 280 274 266 266 266 255 244 218 187 194 203 357 348 345 343 348 350 346 342 342 342 343 344 345 344 342 341 342 344 345 347 349 350 349 350 353 354 348 344 336
201 210 195 250 262 243 259 255 252 232 215 204 191 168 147 2 353 346 354 353 349 344 340 342 344 344 345 344 344 343 344 345 345 346 347 349 348 350 351 350 350 360 355 344